Madison, SD

9:45 AM CDT on June 28, 2017 (GMT -0500)
Madison Municipal

Weather History for KMDS - December, 2012

Change the Weather History Date:

Monday, December 10, 2012

  Actual Average Record
Temperature  
Mean Temperature 4 °F -  
Max Temperature 17 °F 29 °F 48 °F (2015)
Min Temperature -9 °F 9 °F -9 °F (2012)
Degree Days  
Heating Degree Days 61    
Moisture  
Dew Point 4 °F    
Average Humidity 97    
Maximum Humidity 100    
Minimum Humidity 92    
Precipitation  
Precipitation 0.00 in - - ()
Sea Level Pressure  
Sea Level Pressure 29.89 in    
Wind  
Wind Speed 10 mph (WSW)    
Max Wind Speed 17 mph    
Max Gust Speed 16 mph    
Visibility 10 miles    
Events Snow    
Averages and records for this station are not official NWS values.
T = Trace of Precipitation, MM = Missing Value Source: NWS Daily Summary

Daily Weather History Graph

Daily Weather History Graph

Search for Another Location

Airport or City:

Trip Planner

Search our weather history database for the weather conditions in past years. The results will help you decide how hot, cold, wet, or windy it might be!

Date:

Astronomy

Dec. 10, 2012 Rise Set
Actual Time 7:52 AM CST 4:50 PM CST
Civil Twilight 7:19 AM CST 5:23 PM CST
Nautical Twilight 6:43 AM CST 5:59 PM CST
Astronomical Twilight 6:08 AM CST 6:34 PM CST
Moon 4:33 AM CST (12/10) 2:43 PM CST (12/10)
Length of Visible Light 10h 03m
Length of Day
8h 57m
Waning Crescent, 10% of the Moon is Illuminated
Dec 10
Waning Crescent
Dec 13
New
Dec 19
First Quarter
Dec 28
Full
Jan 4
Last Quarter

Hourly Weather History & Observations

Time (CST) Temp. Windchill Dew Point Humidity Pressure Visibility Wind Dir Wind Speed Gust Speed Precip Events Conditions
12:00 AM -0.4 °F -21.2 °F -0.4 °F 100% 30.09 in 10.0 mi NW 17.3 mph - N/A   Clear
12:20 AM -2.2 °F -21.5 °F -2.2 °F 100% 30.09 in 10.0 mi NW 13.8 mph - N/A   Clear
12:40 AM -2.2 °F -20.7 °F -2.2 °F 100% 30.08 in 10.0 mi NW 12.7 mph - N/A   Mostly Cloudy
1:00 AM -4.0 °F -24.5 °F -4.0 °F 100% 30.07 in 10.0 mi NW 15.0 mph - N/A   Mostly Cloudy
1:20 AM -4.0 °F -23.0 °F -4.0 °F 100% 30.06 in 10.0 mi NW 12.7 mph - N/A   Partly Cloudy
1:40 AM -2.2 °F -22.2 °F -4.0 °F 92% 30.05 in 10.0 mi NW 15.0 mph - N/A   Clear
2:00 AM -4.0 °F -23.0 °F -4.0 °F 100% 30.05 in 10.0 mi NW 12.7 mph - N/A   Clear
2:40 AM -4.0 °F -23.0 °F -4.0 °F 100% 30.04 in 10.0 mi NW 12.7 mph - N/A   Clear
3:00 AM -4.0 °F -16.3 °F -4.0 °F 100% 30.04 in 10.0 mi NNW 5.8 mph - N/A   Clear
3:20 AM -4.0 °F -19.0 °F -5.8 °F 92% 30.04 in 10.0 mi WNW 8.1 mph - N/A   Clear
3:40 AM -4.0 °F -20.2 °F -5.8 °F 92% 30.03 in 10.0 mi WNW 9.2 mph - N/A   Clear
4:00 AM -5.8 °F -23.4 °F -7.6 °F 92% 30.03 in 10.0 mi WNW 10.4 mph - N/A   Clear
4:20 AM -7.6 °F -25.7 °F -7.6 °F 100% 30.02 in 10.0 mi NW 10.4 mph - N/A   Clear
4:40 AM -7.6 °F -23.4 °F -9.4 °F 92% 30.01 in 10.0 mi NW 8.1 mph - N/A   Clear
5:00 AM -7.6 °F -23.4 °F -9.4 °F 92% 30.00 in 10.0 mi NW 8.1 mph - N/A   Clear
5:20 AM -7.6 °F -22.1 °F -9.4 °F 92% 29.99 in 10.0 mi NW 6.9 mph - N/A   Clear
5:40 AM -9.4 °F -24.3 °F -9.4 °F 100% 29.98 in 10.0 mi NNW 6.9 mph - N/A   Clear
6:00 AM -9.4 °F -25.6 °F -9.4 °F 100% 29.97 in 10.0 mi NNW 8.1 mph - N/A   Clear
6:20 AM -9.4 °F -25.6 °F -11.2 °F 92% 29.96 in 10.0 mi NW 8.1 mph - N/A   Clear
6:40 AM -9.4 °F -22.7 °F -11.2 °F 92% 29.96 in 10.0 mi NW 5.8 mph - N/A   Clear
7:00 AM -5.8 °F -18.4 °F -7.6 °F 92% 29.97 in 10.0 mi WNW 5.8 mph - N/A   Clear
7:20 AM -7.6 °F -22.1 °F -9.4 °F 92% 29.97 in 10.0 mi WNW 6.9 mph - N/A   Clear
7:40 AM -4.0 °F -17.8 °F -4.0 °F 100% 29.96 in 10.0 mi WNW 6.9 mph - N/A   Clear
8:00 AM -5.8 °F -16.7 °F -7.6 °F 92% 29.96 in 10.0 mi WNW 4.6 mph - N/A   Clear
8:20 AM -4.0 °F -14.6 °F -4.0 °F 100% 29.97 in 10.0 mi West 4.6 mph - N/A   Clear
8:40 AM -4.0 °F - -4.0 °F 100% 29.96 in 10.0 mi Calm Calm - N/A   Clear
9:00 AM -4.0 °F - -4.0 °F 100% 29.96 in 10.0 mi Calm Calm - N/A   Clear
9:20 AM -2.2 °F -10.4 °F -2.2 °F 100% 29.95 in 10.0 mi SW 3.5 mph - N/A   Clear
9:40 AM -2.2 °F - -2.2 °F 100% 29.94 in 10.0 mi Calm Calm - N/A   Clear
10:00 AM -0.4 °F -12.0 °F -0.4 °F 100% 29.95 in 10.0 mi South 5.8 mph - N/A   Clear
10:20 AM -0.4 °F -8.3 °F -0.4 °F 100% 29.94 in 10.0 mi SSE 3.5 mph - N/A   Clear
10:40 AM 1.4 °F - 1.4 °F 100% 29.93 in 10.0 mi Calm Calm - N/A   Clear
11:00 AM 1.4 °F -11.3 °F 1.4 °F 100% 29.93 in 10.0 mi South 6.9 mph - N/A   Clear
11:20 AM 3.2 °F -10.3 °F 3.2 °F 100% 29.91 in 10.0 mi South 8.1 mph - N/A   Clear
11:40 AM 5.0 °F -8.1 °F 5.0 °F 100% 29.89 in 10.0 mi SSE 8.1 mph - N/A   Clear
12:00 PM 5.0 °F -10.8 °F 5.0 °F 100% 29.88 in 10.0 mi South 11.5 mph - N/A   Clear
12:20 PM 6.8 °F -7.8 °F 6.8 °F 100% 29.87 in 10.0 mi South 10.4 mph - N/A   Clear
12:40 PM 6.8 °F -6.9 °F 6.8 °F 100% 29.86 in 10.0 mi South 9.2 mph - N/A   Clear
1:00 PM 6.8 °F -6.9 °F 6.8 °F 100% 29.85 in 10.0 mi South 9.2 mph - N/A   Clear
1:20 PM 8.6 °F -5.5 °F 6.8 °F 92% 29.83 in 10.0 mi South 10.4 mph - N/A   Clear
1:40 PM 8.6 °F -4.7 °F 6.8 °F 92% 29.82 in 10.0 mi South 9.2 mph - N/A   Clear
2:00 PM 8.6 °F -4.7 °F 6.8 °F 92% 29.81 in 10.0 mi South 9.2 mph - N/A   Clear
2:20 PM 8.6 °F -5.5 °F 6.8 °F 92% 29.81 in 10.0 mi South 10.4 mph - N/A   Clear
2:40 PM 8.6 °F -4.7 °F 6.8 °F 92% 29.79 in 10.0 mi South 9.2 mph - N/A   Mostly Cloudy
3:00 PM 10.4 °F -4.1 °F 8.6 °F 92% 29.79 in 10.0 mi South 11.5 mph - N/A   Scattered Clouds
3:20 PM 10.4 °F -3.3 °F 8.6 °F 92% 29.78 in 10.0 mi South 10.4 mph - N/A   Mostly Cloudy
3:40 PM 10.4 °F -4.1 °F 8.6 °F 92% 29.79 in 10.0 mi SSW 11.5 mph - N/A   Scattered Clouds
4:00 PM 10.4 °F -4.8 °F 8.6 °F 92% 29.79 in 10.0 mi SSW 12.7 mph - N/A   Clear
4:20 PM 10.4 °F -5.4 °F 8.6 °F 92% 29.79 in 10.0 mi South 13.8 mph - N/A   Scattered Clouds
4:40 PM 10.4 °F -4.1 °F 10.4 °F 100% 29.79 in 10.0 mi SSW 11.5 mph - N/A   Overcast
5:00 PM 10.4 °F -4.1 °F 10.4 °F 100% 29.79 in 10.0 mi SSW 11.5 mph - N/A   Mostly Cloudy
5:20 PM 10.4 °F -4.1 °F 10.4 °F 100% 29.78 in 10.0 mi South 11.5 mph - N/A   Overcast
5:40 PM 10.4 °F -2.4 °F 10.4 °F 100% 29.79 in 10.0 mi SSW 9.2 mph - N/A   Overcast
6:00 PM 12.2 °F -1.8 °F 12.2 °F 100% 29.77 in 10.0 mi South 11.5 mph - N/A   Overcast
6:20 PM 12.2 °F -1.0 °F 12.2 °F 100% 29.77 in 10.0 mi South 10.4 mph - N/A   Overcast
6:40 PM 14.0 °F 1.2 °F 14.0 °F 100% 29.77 in 10.0 mi SSW 10.4 mph - N/A   Overcast
7:00 PM 14.0 °F 2.9 °F 14.0 °F 100% 29.78 in 10.0 mi SW 8.1 mph - N/A   Mostly Cloudy
7:20 PM 15.8 °F 4.2 °F 15.8 °F 100% 29.78 in 10.0 mi SW 9.2 mph - N/A Snow Light Snow
7:40 PM 15.8 °F 4.2 °F 15.8 °F 100% 29.77 in 10.0 mi SW 9.2 mph - N/A   Overcast
8:00 PM 15.8 °F 3.4 °F 15.8 °F 100% 29.78 in 10.0 mi WSW 10.4 mph - N/A   Overcast
8:40 PM 14.0 °F 2.0 °F 14.0 °F 100% 29.78 in 10.0 mi WSW 9.2 mph - N/A   Scattered Clouds
9:00 PM 15.8 °F 4.2 °F 15.8 °F 100% 29.78 in 10.0 mi West 9.2 mph - N/A   Overcast
9:20 PM 17.6 °F 6.4 °F 17.6 °F 100% 29.78 in 10.0 mi West 9.2 mph - N/A   Overcast
9:40 PM 17.6 °F 5.0 °F 17.6 °F 100% 29.77 in 10.0 mi West 11.5 mph 16.1 mph N/A   Overcast
10:00 PM 17.6 °F 6.4 °F 17.6 °F 100% 29.77 in 10.0 mi West 9.2 mph - N/A   Scattered Clouds
10:20 PM 15.8 °F 2.1 °F 15.8 °F 100% 29.77 in 10.0 mi West 12.7 mph - N/A   Clear
10:40 PM 15.8 °F 2.1 °F 15.8 °F 100% 29.78 in 10.0 mi West 12.7 mph - N/A   Scattered Clouds
11:00 PM 15.8 °F 2.7 °F 15.8 °F 100% 29.78 in 10.0 mi West 11.5 mph - N/A   Overcast
11:20 PM 15.8 °F 4.2 °F 15.8 °F 100% 29.79 in 10.0 mi West 9.2 mph - N/A   Overcast
11:40 PM 15.8 °F 2.7 °F 15.8 °F 100% 29.78 in 10.0 mi West 11.5 mph - N/A   Overcast